Stanton, MN

11:34 PM CDT on September 25, 2017 (GMT -0500)
Stanton

Weather History for KSYN - May, 2013

Change the Weather History Date:

Sunday, May 12, 2013

  Actual Average (KLVN) Record (KLVN)
Temperature  
Mean Temperature 44 °F -  
Max Temperature 57 °F 69 °F 88 °F (1961)
Min Temperature 32 °F 45 °F 30 °F (1971)
Degree Days  
Heating Degree Days 20    
Moisture  
Dew Point 22 °F    
Average Humidity 45    
Maximum Humidity 76    
Minimum Humidity 19    
Precipitation  
Precipitation 0.00 in - - ()
Sea Level Pressure  
Sea Level Pressure 30.15 in    
Wind  
Wind Speed 8 mph (NW)    
Max Wind Speed 17 mph    
Max Gust Speed 24 mph    
Visibility 10 miles    
Events      
Averages and records for this station are not official NWS values.
T = Trace of Precipitation, MM = Missing Value Source: NWS Daily Summary

Daily Weather History Graph

Daily Weather History Graph

Search for Another Location

Airport or City:

Trip Planner

Search our weather history database for the weather conditions in past years. The results will help you decide how hot, cold, wet, or windy it might be!

Date:

Astronomy

May. 12, 2013 Rise Set
Actual Time 5:47 AM CDT 8:29 PM CDT
Civil Twilight 5:14 AM CDT 9:03 PM CDT
Nautical Twilight 4:32 AM CDT 9:45 PM CDT
Astronomical Twilight 3:43 AM CDT 10:34 PM CDT
Moon 7:41 AM CDT (5/12) 10:58 PM CDT (5/12)
Length of Visible Light 15h 49m
Length of Day
14h 42m
Waxing Crescent, 7% of the Moon is Illuminated
May 12
Waxing Crescent
May 17
First Quarter
May 24
Full
May 31
Last Quarter
Jun 8
New

Hourly Weather History & Observations

Time (CDT) Temp. Windchill Dew Point Humidity Pressure Visibility Wind Dir Wind Speed Gust Speed Precip Events Conditions
12:13 AM 38.5 °F 33.4 °F 23.4 °F 55% 30.16 in 10.0 mi NW 6.9 mph - N/A   Clear
12:34 AM 36.9 °F 32.2 °F 24.1 °F 60% 30.17 in 10.0 mi NW 5.8 mph - N/A   Clear
12:53 AM 35.8 °F 30.9 °F 24.6 °F 64% 30.17 in 10.0 mi NW 5.8 mph - N/A   Clear
1:14 AM 35.6 °F 29.9 °F 24.1 °F 63% 30.17 in 10.0 mi WNW 6.9 mph - N/A   Clear
1:33 AM 33.3 °F 27.9 °F 24.6 °F 71% 30.18 in 10.0 mi NW 5.8 mph - N/A   Clear
1:54 AM 35.4 °F 29.7 °F 23.9 °F 63% 30.18 in 10.0 mi NW 6.9 mph - N/A   Clear
2:14 AM 35.2 °F 29.5 °F 23.9 °F 63% 30.18 in 10.0 mi NW 6.9 mph - N/A   Clear
2:33 AM 34.2 °F 27.5 °F 24.4 °F 68% 30.18 in 10.0 mi NW 8.1 mph - N/A   Clear
2:54 AM 34.9 °F 29.0 °F 23.9 °F 64% 30.18 in 10.0 mi NW 6.9 mph - N/A   Clear
3:14 AM 33.6 °F 28.4 °F 23.9 °F 68% 30.17 in 10.0 mi NW 5.8 mph - N/A   Clear
3:33 AM 32.9 °F 26.7 °F 24.6 °F 72% 30.17 in 10.0 mi NW 6.9 mph - N/A   Clear
3:54 AM 32.9 °F 27.5 °F 24.6 °F 72% 30.17 in 10.0 mi NW 5.8 mph - N/A   Clear
4:33 AM 32.7 °F 28.3 °F 24.6 °F 72% 30.17 in 10.0 mi NW 4.6 mph - N/A   Clear
4:54 AM 33.4 °F 27.3 °F 24.6 °F 70% 30.17 in 10.0 mi WNW 6.9 mph - N/A   Clear
5:14 AM 32.5 °F 27.1 °F 24.3 °F 72% 30.18 in 10.0 mi WNW 5.8 mph - N/A   Clear
5:33 AM 32.2 °F 26.7 °F 24.1 °F 72% 30.18 in 10.0 mi WNW 5.8 mph - N/A   Clear
5:54 AM 32.0 °F 25.6 °F 23.9 °F 72% 30.18 in 10.0 mi WNW 6.9 mph - N/A   Clear
6:14 AM 32.5 °F 26.2 °F 24.6 °F 73% 30.19 in 10.0 mi WNW 6.9 mph - N/A   Clear
6:33 AM 32.2 °F 25.8 °F 25.5 °F 76% 30.19 in 10.0 mi WNW 6.9 mph - N/A   Clear
6:54 AM 34.3 °F 29.2 °F 26.6 °F 73% 30.20 in 10.0 mi NW 5.8 mph - N/A   Clear
7:13 AM 36.3 °F 30.8 °F 27.3 °F 70% 30.20 in 10.0 mi NW 6.9 mph - N/A   Clear
7:33 AM 38.3 °F 32.5 °F 26.1 °F 61% 30.20 in 10.0 mi NW 8.1 mph - N/A   Clear
7:54 AM 40.1 °F 33.2 °F 25.3 °F 56% 30.20 in 10.0 mi NNW 11.5 mph - N/A   Clear
8:13 AM 41.5 °F 34.6 °F 24.8 °F 51% 30.20 in 10.0 mi NNW 12.7 mph - N/A   Clear
8:34 AM 42.8 °F 35.8 °F 23.4 °F 46% 30.20 in 10.0 mi NNW 13.8 mph - N/A   Clear
8:53 AM 43.3 °F 36.8 °F 23.0 °F 45% 30.21 in 10.0 mi NNW 12.7 mph - N/A   Clear
9:14 AM 44.6 °F 38.4 °F 22.1 °F 41% 30.21 in 10.0 mi NNW 12.7 mph 18.4 mph N/A   Clear
9:34 AM 45.0 °F 38.5 °F 21.7 °F 40% 30.20 in 10.0 mi NNW 13.8 mph 23.0 mph N/A   Clear
9:53 AM 45.9 °F 40.4 °F 22.1 °F 39% 30.20 in 10.0 mi NW 11.5 mph 20.7 mph N/A   Clear
10:14 AM 46.2 °F 39.3 °F 21.9 °F 38% 30.20 in 10.0 mi NW 17.3 mph 21.9 mph N/A   Clear
10:34 AM 46.9 °F - 21.7 °F 37% 30.20 in 10.0 mi NW 13.8 mph 18.4 mph N/A   Clear
10:53 AM 47.7 °F - 21.7 °F 36% 30.20 in 10.0 mi NNW 11.5 mph 17.3 mph N/A   Clear
11:14 AM 48.4 °F - 21.6 °F 35% 30.20 in 10.0 mi NNW 11.5 mph 24.2 mph N/A   Clear
11:34 AM 49.1 °F - 22.1 °F 35% 30.19 in 10.0 mi NNW 13.8 mph 19.6 mph N/A   Clear
12:13 PM 50.9 °F - 21.4 °F 31% 30.18 in 10.0 mi North 17.3 mph 23.0 mph N/A   Clear
12:34 PM 50.5 °F - 21.2 °F 32% 30.17 in 10.0 mi NNW 15.0 mph 18.4 mph N/A   Clear
12:53 PM 51.6 °F - 21.0 °F 30% 30.16 in 10.0 mi NNW 5.8 mph 19.6 mph N/A   Clear
1:14 PM 52.0 °F - 19.9 °F 28% 30.16 in 10.0 mi NNW 12.7 mph 19.6 mph N/A   Clear
1:33 PM 52.5 °F - 19.9 °F 28% 30.15 in 10.0 mi North 5.8 mph 18.4 mph N/A   Clear
1:53 PM 53.1 °F - 20.8 °F 28% 30.15 in 10.0 mi NW 13.8 mph 24.2 mph N/A   Clear
2:14 PM 54.0 °F - 20.7 °F 27% 30.14 in 10.0 mi NW 11.5 mph 17.3 mph N/A   Clear
2:33 PM 53.6 °F - 19.6 °F 26% 30.14 in 10.0 mi NW 8.1 mph - N/A   Clear
2:53 PM 54.3 °F - 18.1 °F 24% 30.13 in 10.0 mi NW 12.7 mph 21.9 mph N/A   Clear
3:14 PM 55.0 °F - 17.6 °F 23% 30.13 in 10.0 mi WNW 13.8 mph 20.7 mph N/A   Clear
3:34 PM 55.8 °F - 16.7 °F 22% 30.12 in 10.0 mi NW 13.8 mph 17.3 mph N/A   Clear
3:53 PM 55.8 °F - 16.9 °F 22% 30.12 in 10.0 mi NW 10.4 mph 16.1 mph N/A   Clear
4:14 PM 56.3 °F - 16.5 °F 21% 30.11 in 10.0 mi WNW 10.4 mph 18.4 mph N/A   Clear
4:34 PM 57.0 °F - 17.6 °F 21% 30.10 in 10.0 mi NNW 10.4 mph - N/A   Clear
4:53 PM 56.8 °F - 16.5 °F 21% 30.10 in 10.0 mi NW 15.0 mph 19.6 mph N/A   Clear
5:14 PM 56.8 °F - 15.8 °F 20% 30.10 in 10.0 mi WNW 16.1 mph 20.7 mph N/A   Clear
5:34 PM 57.2 °F - 15.8 °F 20% 30.10 in 10.0 mi NW 13.8 mph 18.4 mph N/A   Clear
5:53 PM 57.2 °F - 15.3 °F 19% 30.10 in 10.0 mi NW 16.1 mph - N/A   Clear
6:14 PM 56.7 °F - 14.4 °F 19% 30.10 in 10.0 mi NW 9.2 mph - N/A   Clear
6:33 PM 56.7 °F - 15.6 °F 20% 30.09 in 10.0 mi NNW 12.7 mph 16.1 mph N/A   Clear
6:54 PM 56.5 °F - 14.7 °F 19% 30.09 in 10.0 mi NW 10.4 mph - N/A   Clear
7:13 PM 55.8 °F - 14.4 °F 20% 30.08 in 10.0 mi NNW 9.2 mph - N/A   Clear
7:34 PM 55.4 °F - 16.2 °F 21% 30.08 in 10.0 mi NW 9.2 mph - N/A   Clear
7:54 PM 54.0 °F - 17.6 °F 24% 30.08 in 10.0 mi NW 6.9 mph - N/A   Clear
8:13 PM 51.6 °F - 19.0 °F 28% 30.08 in 10.0 mi NW 6.9 mph - N/A   Clear
8:34 PM 50.7 °F - 19.0 °F 29% 30.09 in 7.0 mi Calm Calm - N/A   Clear
8:54 PM 49.3 °F - 19.4 °F 31% 30.09 in 7.0 mi NW 3.5 mph - N/A   Clear
9:13 PM 47.5 °F - 22.3 °F 37% 30.10 in 10.0 mi Calm Calm - N/A   Clear
9:34 PM 45.1 °F - 24.1 °F 44% 30.10 in 10.0 mi Calm Calm - N/A   Clear
9:53 PM 43.5 °F 41.9 °F 25.2 °F 48% 30.10 in 10.0 mi SSW 3.5 mph - N/A   Clear
10:14 PM 39.9 °F 36.7 °F 28.6 °F 64% 30.10 in 10.0 mi South 4.6 mph - N/A   Clear
10:33 PM 38.8 °F - 28.2 °F 66% 30.10 in 10.0 mi Calm Calm - N/A   Clear
10:53 PM 39.0 °F 36.8 °F 27.0 °F 62% 30.10 in 10.0 mi East 3.5 mph - N/A   Clear
11:14 PM 40.5 °F - 25.7 °F 56% 30.10 in 10.0 mi Calm Calm - N/A   Clear
11:33 PM 38.7 °F - 25.3 °F 59% 30.10 in 10.0 mi Calm Calm - N/A   Clear
11:54 PM 36.3 °F - 26.8 °F 68% 30.10 in 10.0 mi Calm Calm - N/A   Clear